Time,TemperatureF,DewpointF,PressureIn,WindDirection,WindDirectionDegrees,WindSpeedMPH,WindSpeedGustMPH,Humidity,HourlyPrecipIn,Conditions,Clouds,dailyrainin,SolarRadiationWatts/m^2,SoftwareType,DateUTC
2013-09-10 00:12:00,49.0,44.0,-100.00,WNW,290,1.0,5.0,84,0.00,,,0.25,0.000000,,2013-09-10 07:12:00,
2013-09-10 00:21:00,49.0,44.0,-100.00,WNW,290,1.0,5.0,84,0.00,,,0.25,0.000000,,2013-09-10 07:21:00,
2013-09-10 00:32:00,49.0,44.0,-100.00,WNW,290,1.0,5.0,84,0.00,,,0.25,0.000000,,2013-09-10 07:32:00,
2013-09-10 01:12:00,48.0,44.0,-100.00,WNW,289,2.0,4.0,86,0.00,,,0.01,0.000000,,2013-09-10 08:12:00,
2013-09-10 01:22:00,48.0,44.0,-100.00,WNW,289,2.0,4.0,86,0.00,,,0.01,0.000000,,2013-09-10 08:22:00,
2013-09-10 01:32:00,48.0,44.0,-100.00,WNW,289,2.0,4.0,86,0.00,,,0.01,0.000000,,2013-09-10 08:32:00,
2013-09-10 02:11:00,48.0,44.0,-100.00,WNW,288,2.0,5.0,85,0.00,,,0.01,0.000000,,2013-09-10 09:11:00,
2013-09-10 02:21:00,48.0,44.0,-100.00,WNW,288,2.0,5.0,85,0.00,,,0.01,0.000000,,2013-09-10 09:21:00,
2013-09-10 02:33:00,48.0,44.0,-100.00,WNW,288,2.0,5.0,85,0.00,,,0.01,0.000000,,2013-09-10 09:33:00,
2013-09-10 03:13:00,51.0,43.0,-100.00,NW,306,0.0,5.0,75,0.00,,,0.01,0.000000,,2013-09-10 10:13:00,
2013-09-10 03:23:00,51.0,43.0,-100.00,NW,306,0.0,5.0,75,0.00,,,0.01,0.000000,,2013-09-10 10:23:00,
2013-09-10 03:33:00,51.0,43.0,-100.00,NW,306,0.0,5.0,75,0.00,,,0.01,0.000000,,2013-09-10 10:33:00,
2013-09-10 04:12:00,50.0,44.0,-100.00,WNW,289,0.0,5.0,79,0.00,,,0.01,0.000000,,2013-09-10 11:12:00,
2013-09-10 04:22:00,50.0,44.0,-100.00,WNW,289,0.0,5.0,79,0.00,,,0.01,0.000000,,2013-09-10 11:22:00,
2013-09-10 04:33:00,50.0,44.0,-100.00,WNW,289,0.0,5.0,79,0.00,,,0.01,0.000000,,2013-09-10 11:33:00,
2013-09-10 07:11:00,49.0,46.0,-100.00,WNW,288,0.0,4.0,90,-99.99,,,0.01,0.000000,,2013-09-10 14:11:00,
2013-09-10 07:21:00,49.0,46.0,-100.00,WNW,288,0.0,4.0,90,-99.99,,,0.01,0.000000,,2013-09-10 14:21:00,
2013-09-10 07:32:00,49.0,46.0,-100.00,WNW,288,0.0,4.0,90,-99.99,,,0.01,0.000000,,2013-09-10 14:32:00,
2013-09-10 07:34:00,48.0,44.0,-100.00,WNW,285,0.0,4.0,85,0.00,,,0.01,15.000000,,2013-09-10 14:34:00,
2013-09-10 08:11:00,48.0,44.0,-100.00,WNW,285,0.0,4.0,85,0.00,,,0.01,15.000000,,2013-09-10 15:11:00,
2013-09-10 08:22:00,48.0,44.0,-100.00,WNW,285,0.0,4.0,85,0.00,,,0.01,15.000000,,2013-09-10 15:22:00,
2013-09-10 09:13:00,58.0,39.0,-100.00,SSW,213,1.0,4.0,49,0.00,,,0.01,175.000000,,2013-09-10 16:13:00,
2013-09-10 09:23:00,58.0,39.0,-100.00,SSW,213,1.0,4.0,49,0.00,,,0.01,175.000000,,2013-09-10 16:23:00,
2013-09-10 09:33:00,58.0,39.0,-100.00,SSW,213,1.0,4.0,49,0.00,,,0.01,175.000000,,2013-09-10 16:33:00,
2013-09-10 10:12:00,64.0,39.0,-100.00,NE,45,3.0,8.0,40,0.00,,,0.00,508.000000,,2013-09-10 17:12:00,
2013-09-10 10:23:00,64.0,39.0,-100.00,NE,45,3.0,8.0,40,0.00,,,0.00,508.000000,,2013-09-10 17:23:00,
2013-09-10 10:33:00,64.0,39.0,-100.00,NE,45,3.0,8.0,40,0.00,,,0.00,508.000000,,2013-09-10 17:33:00,
2013-09-10 11:12:00,67.0,40.0,-100.00,East,92,4.0,9.0,37,0.00,,,0.00,813.000000,,2013-09-10 18:12:00,
2013-09-10 11:21:00,67.0,40.0,-100.00,East,92,4.0,9.0,37,0.00,,,0.00,813.000000,,2013-09-10 18:21:00,
2013-09-10 11:32:00,67.0,40.0,-100.00,East,92,4.0,9.0,37,0.00,,,0.00,813.000000,,2013-09-10 18:32:00,
2013-09-10 12:11:00,68.0,41.0,-100.00,ESE,105,6.0,11.0,37,0.00,,,0.00,971.000000,,2013-09-10 19:11:00,
2013-09-10 12:21:00,68.0,41.0,-100.00,ESE,105,6.0,11.0,37,0.00,,,0.00,971.000000,,2013-09-10 19:21:00,
2013-09-10 12:32:00,68.0,41.0,-100.00,ESE,105,6.0,11.0,37,0.00,,,0.00,971.000000,,2013-09-10 19:32:00,
2013-09-10 13:11:00,71.0,45.0,-100.00,ESE,120,5.0,11.0,39,0.00,,,0.00,972.000000,,2013-09-10 20:11:00,
2013-09-10 13:21:00,71.0,45.0,-100.00,ESE,120,5.0,11.0,39,0.00,,,0.00,972.000000,,2013-09-10 20:21:00,
2013-09-10 13:32:00,71.0,45.0,-100.00,ESE,120,5.0,11.0,39,0.00,,,0.00,972.000000,,2013-09-10 20:32:00,
2013-09-10 15:13:00,71.0,42.0,-100.00,East,97,6.0,11.0,35,0.00,,,0.00,1114.000000,,2013-09-10 22:13:00,
2013-09-10 15:24:00,71.0,42.0,-100.00,East,97,6.0,11.0,35,0.00,,,0.00,1114.000000,,2013-09-10 22:24:00,
2013-09-10 15:33:00,71.0,42.0,-100.00,East,97,6.0,11.0,35,0.00,,,0.00,1114.000000,,2013-09-10 22:33:00,
2013-09-10 15:34:00,71.0,43.0,-100.00,NW,304,5.0,12.0,36,0.00,,,0.00,877.000000,,2013-09-10 22:34:00,
2013-09-10 16:13:00,71.0,43.0,-100.00,NW,304,5.0,12.0,36,0.00,,,0.00,877.000000,,2013-09-10 23:13:00,
2013-09-10 16:22:00,71.0,43.0,-100.00,NW,304,5.0,12.0,36,0.00,,,0.00,877.000000,,2013-09-10 23:22:00,
2013-09-10 17:11:00,68.0,41.0,-100.00,ESE,113,5.0,11.0,38,0.00,,,0.00,584.000000,,2013-09-11 00:11:00,
2013-09-10 17:22:00,68.0,41.0,-100.00,ESE,113,5.0,11.0,38,0.00,,,0.00,584.000000,,2013-09-11 00:22:00,
2013-09-10 17:32:00,68.0,41.0,-100.00,ESE,113,5.0,11.0,38,0.00,,,0.00,584.000000,,2013-09-11 00:32:00,
2013-09-10 18:11:00,65.0,43.0,-100.00,North,359,4.0,12.0,44,0.00,,,0.00,163.000000,,2013-09-11 01:11:00,
2013-09-10 18:21:00,65.0,43.0,-100.00,North,359,4.0,12.0,44,0.00,,,0.00,163.000000,,2013-09-11 01:21:00,
2013-09-10 18:32:00,65.0,43.0,-100.00,North,359,4.0,12.0,44,0.00,,,0.00,163.000000,,2013-09-11 01:32:00,
2013-09-10 19:11:00,59.0,40.0,-100.00,ESE,112,3.0,10.0,49,0.00,,,0.00,45.000000,,2013-09-11 02:11:00,
2013-09-10 19:22:00,59.0,40.0,-100.00,ESE,112,3.0,10.0,49,0.00,,,0.00,45.000000,,2013-09-11 02:22:00,
2013-09-10 19:32:00,59.0,40.0,-100.00,ESE,112,3.0,10.0,49,0.00,,,0.00,45.000000,,2013-09-11 02:32:00,
2013-09-10 19:34:00,55.0,39.0,-100.00,West,280,0.0,8.0,54,0.00,,,0.00,5.000000,,2013-09-11 02:34:00,
2013-09-10 20:12:00,55.0,39.0,-100.00,West,280,0.0,8.0,54,0.00,,,0.00,5.000000,,2013-09-11 03:12:00,
2013-09-10 20:22:00,55.0,39.0,-100.00,West,280,0.0,8.0,54,0.00,,,0.00,5.000000,,2013-09-11 03:22:00,
2013-09-10 21:14:00,53.0,42.0,-100.00,WNW,285,0.0,4.0,65,0.00,,,0.00,0.000000,,2013-09-11 04:14:00,
2013-09-10 21:24:00,53.0,42.0,-100.00,WNW,285,0.0,4.0,65,0.00,,,0.00,0.000000,,2013-09-11 04:24:00,
2013-09-10 21:33:00,53.0,42.0,-100.00,WNW,285,0.0,4.0,65,0.00,,,0.00,0.000000,,2013-09-11 04:33:00,
2013-09-10 22:12:00,50.0,41.0,-100.00,WNW,285,0.0,4.0,71,0.00,,,0.00,0.000000,,2013-09-11 05:12:00,
2013-09-10 22:22:00,50.0,41.0,-100.00,WNW,285,0.0,4.0,71,0.00,,,0.00,0.000000,,2013-09-11 05:22:00,
2013-09-10 22:33:00,50.0,41.0,-100.00,WNW,285,0.0,4.0,71,0.00,,,0.00,0.000000,,2013-09-11 05:33:00,
2013-09-10 23:12:00,49.0,39.0,-100.00,WNW,289,2.0,4.0,69,0.00,,,0.00,0.000000,,2013-09-11 06:12:00,
2013-09-10 23:21:00,49.0,39.0,-100.00,WNW,289,2.0,4.0,69,0.00,,,0.00,0.000000,,2013-09-11 06:21:00,
2013-09-10 23:32:00,49.0,39.0,-100.00,WNW,289,2.0,4.0,69,0.00,,,0.00,0.000000,,2013-09-11 06:32:00,